Location: Key Biscayne
(25.6930°N, 80.1630°W)
Time: 18:59:26
(UTC-05:00)

N. Korean satellite - Pass Details

Date: 11 November 2017
Orbit: 460 x 514 km, 97.2° (Epoch: 22 November)

Event Time Altitude Azimuth Distance (km) Brightness Sun altitude
Rises 18:19:01 0° 160° (SSE) 2,469 10.1 -10.7°
Reaches altitude 10° 18:21:04 10° 155° (SSE) 1,598 9.1 -11.1°
Maximum altitude 18:24:25 54° 77° (ENE) 561 6.5 -11.8°
Drops below altitude 10° 18:27:48 10° 359° (N) 1,611 9.1 -12.6°
Sets 18:29:52 0° 355° (N) 2,494 10.1 -13.0°
